N7BDR Weather Reports


time (UTC)temp
F
wind
direction
speed
knots
gust
knots
rain 1hr
in
rain 24hr
in
rain mn
in
humidity
%
barometer
mb
20260502163945 68 218 3.5 8.7 0.00 0.00 0.00 22 1017.5
20260502163452 67 166 3.5 8.7 0.00 0.00 0.00 22 1017.5
20260502162955 68 154 2.6 8.7 0.00 0.00 0.00 22 1017.5
20260502162450 67 227 2.6 8.7 0.00 0.00 0.00 24 1017.5
20260502161959 67 208 2.6 8.7 0.00 0.00 0.00 24 1017.5
20260502160838 66 195 2.6 8.7 0.00 0.00 0.00 25 1017.6
20260502160333 65 258 2.6 7.8 0.00 0.00 0.00 24 1017.7
20260502152312 63 262 1.7 7.8 0.00 0.00 0.00 32 1017.8
20260502151816 62 198 1.7 7.8 0.00 0.00 0.00 33 1017.9
20260502151301 62 277 0.9 5.2 0.00 0.00 0.00 36 1018.0
20260502150756 61 180 0.9 5.2 0.00 0.00 0.00 36 1017.9
20260502150239 61 257 0.9 5.2 0.00 0.00 0.00 36 1017.9
20260502130258 49 261 0.0 2.6 0.00 0.00 0.00 44 1018.3
20260502123748 47 268 0.0 1.7 0.00 0.00 0.00 49 1018.2
20260502123240 46 258 0.0 1.7 0.00 0.00 0.00 51 1018.2
20260502122731 46 187 0.0 1.7 0.00 0.00 0.00 53 1018.2
20260502122218 45 239 0.0 0.0 0.00 0.00 0.00 55 1018.2
20260502121708 45 253 0.0 0.0 0.00 0.00 0.00 59 1018.1
20260502121210 45 253 0.0 0.0 0.00 0.00 0.00 60 1018.2
20260502120702 45 253 0.0 0.0 0.00 0.00 0.00 59 1018.1
20260502120210 45 246 0.0 0.0 0.00 0.00 0.00 60 1018.1
20260502115655 46 246 0.0 0.0 0.00 0.00 0.00 59 1018.0
20260502115147 47 246 0.0 0.0 0.00 0.00 0.00 58 1018.1
20260502114630 47 246 0.0 0.0 0.00 0.00 0.00 56 1018.0
20260502114124 47 238 0.0 1.7 0.00 0.00 0.00 55 1018.1
20260502113605 47 237 0.0 0.9 0.00 0.00 0.00 54 1018.0
20260502113100 47 257 0.0 0.0 0.00 0.00 0.00 53 1018.1
20260502112556 48 264 0.0 0.0 0.00 0.00 0.00 52 1018.1
20260502112041 48 244 0.0 0.9 0.00 0.00 0.00 51 1018.2
20260502111544 48 246 0.0 1.7 0.00 0.00 0.00 50 1018.2
20260502111039 48 246 0.0 1.7 0.00 0.00 0.00 51 1018.1
20260502110520 48 249 0.0 0.9 0.00 0.00 0.00 50 1018.1
20260502110023 48 225 0.0 1.7 0.00 0.00 0.00 50 1018.1
20260502105506 48 280 0.0 0.9 0.00 0.00 0.00 50 1018.1
20260502105004 47 267 0.0 1.7 0.00 0.00 0.00 51 1018.0
20260502104501 47 268 0.0 0.9 0.00 0.00 0.00 51 1018.0
20260502103950 47 253 0.0 0.0 0.00 0.00 0.00 51 1018.0
20260502103446 47 223 0.0 2.6 0.00 0.00 0.00 51 1018.0
20260502102944 46 255 0.0 2.6 0.00 0.00 0.00 51 1018.0
20260502102426 46 239 0.9 2.6 0.00 0.00 0.00 52 1018.0
20260502101308 44 270 0.0 0.0 0.00 0.00 0.00 55 1017.9
20260502100802 44 272 0.0 0.0 0.00 0.00 0.00 55 1017.9
20260502091148 44 249 0.0 0.0 0.00 0.00 0.00 57 1017.7
20260502090644 44 238 0.0 0.0 0.00 0.00 0.00 57 1017.8
20260502090154 44 321 0.0 0.0 0.00 0.00 0.00 57 1017.8
20260502071345 48 272 0.0 0.0 0.00 0.00 0.00 47 1017.9
20260502070235 48 271 0.0 0.0 0.00 0.00 0.00 46 1017.8
20260502065103 48 271 0.0 0.0 0.00 0.00 0.00 46 1017.8
20260502064604 47 272 0.0 0.0 0.00 0.00 0.00 47 1017.7
20260502064055 48 272 0.0 0.0 0.00 0.00 0.00 47 1017.8
20260502063600 48 271 0.0 0.0 0.00 0.00 0.00 47 1017.8
20260502063043 48 271 0.0 0.0 0.00 0.00 0.00 48 1017.7
20260502062526 47 271 0.0 0.0 0.00 0.00 0.00 49 1017.7
20260502062026 47 271 0.0 0.0 0.00 0.00 0.00 49 1017.7
20260502061530 47 271 0.0 0.0 0.00 0.00 0.00 49 1017.6
20260502060406 47 271 0.0 0.0 0.00 0.00 0.00 49 1017.6
20260502055243 48 280 0.0 0.0 0.00 0.00 0.00 49 1017.5
20260502054057 47 280 0.0 0.0 0.00 0.00 0.00 49 1017.4
20260502053544 48 280 0.0 0.0 0.00 0.00 0.00 49 1017.5
20260502052423 48 281 0.0 0.0 0.00 0.00 0.00 47 1017.4
20260502051248 49 281 0.0 0.0 0.00 0.00 0.00 46 1017.4
20260502050730 49 281 0.0 0.0 0.00 0.00 0.00 46 1017.4
20260502050235 49 280 0.0 0.0 0.00 0.00 0.00 46 1017.4
20260502045733 50 281 0.0 0.0 0.00 0.00 0.00 46 1017.4
20260502045232 50 281 0.0 0.0 0.00 0.00 0.00 45 1017.4
20260502044735 50 281 0.0 0.0 0.00 0.00 0.00 44 1017.4
20260502044230 50 281 0.0 0.0 0.00 0.00 0.00 44 1017.5
20260502043713 51 281 0.0 0.0 0.00 0.00 0.00 44 1017.4
20260502043201 51 281 0.0 0.0 0.00 0.00 0.00 44 1017.4
20260502042706 51 281 0.0 0.0 0.00 0.00 0.00 43 1017.4
20260502042210 51 281 0.0 0.0 0.00 0.00 0.00 43 1017.3
20260502041717 51 281 0.0 0.0 0.00 0.00 0.00 42 1017.3
20260502041209 52 281 0.0 0.0 0.00 0.00 0.00 41 1017.3
20260502040652 52 281 0.0 0.0 0.00 0.00 0.00 40 1017.3
20260502040146 53 281 0.0 0.0 0.00 0.00 0.00 39 1017.3
20260502035647 54 281 0.0 0.0 0.00 0.00 0.00 38 1017.2
20260502035139 54 281 0.0 0.0 0.00 0.00 0.00 36 1017.1
20260502034646 54 281 0.0 0.0 0.00 0.00 0.00 36 1017.1
20260502034138 54 299 0.0 0.0 0.00 0.00 0.00 37 1017.0
20260502033638 55 299 0.0 0.0 0.00 0.00 0.00 36 1017.0
20260502032509 55 301 0.0 0.0 0.00 0.00 0.00 34 1016.7
20260502030741 56 301 0.0 0.0 0.00 0.00 0.00 30 1016.5
20260502030249 56 301 0.0 0.0 0.00 0.00 0.00 29 1016.4
20260502025752 57 301 0.0 0.0 0.00 0.00 0.00 28 1016.4
20260502025256 58 301 0.0 0.0 0.00 0.00 0.00 27 1016.3
20260502024737 58 301 0.0 0.0 0.00 0.00 0.00 26 1016.3
20260502023632 59 301 0.0 0.0 0.00 0.00 0.00 25 1016.2
20260502021915 60 284 0.0 0.0 0.00 0.00 0.00 25 1016.1
20260502020741 61 300 0.0 0.9 0.00 0.00 0.00 23 1015.9
20260502020225 61 316 0.0 2.6 0.00 0.00 0.00 23 1015.9
20260502015712 61 289 0.0 0.0 0.00 0.00 0.00 23 1015.8
20260502015157 61 311 0.0 5.2 0.00 0.00 0.00 22 1015.8
20260502014648 62 294 0.0 5.2 0.00 0.00 0.00 22 1015.8
20260502014141 62 328 0.0 5.2 0.00 0.00 0.00 23 1015.7
20260502013643 62 335 0.9 7.8 0.00 0.00 0.00 23 1015.8
20260502013140 62 298 0.9 7.8 0.00 0.00 0.00 23 1015.8
20260502012622 62 320 0.9 7.8 0.00 0.00 0.00 23 1015.7
20260502011437 63 312 0.0 6.1 0.00 0.00 0.00 24 1015.7
20260502010927 63 318 0.9 5.2 0.00 0.00 0.00 24 1015.7
20260502010411 63 268 0.9 5.2 0.00 0.00 0.00 25 1015.8
20260502005920 63 270 0.9 7.0 0.00 0.00 0.00 26 1015.8
20260502005422 63 306 0.0 7.0 0.00 0.00 0.00 26 1015.8
20260502004925 64 324 0.9 7.0 0.00 0.00 0.00 25 1015.8
20260502004407 64 306 0.9 7.0 0.00 0.00 0.00 25 1015.7
20260502003851 64 320 0.9 6.1 0.00 0.00 0.00 25 1015.7
20260502003332 64 329 0.9 6.1 0.00 0.00 0.00 25 1015.7
20260502002215 64 324 0.9 6.1 0.00 0.00 0.00 26 1015.8
20260502001714 65 310 1.7 7.0 0.00 0.00 0.00 26 1015.8
20260502001215 65 335 1.7 7.0 0.00 0.00 0.00 25 1015.9
20260502000718 65 341 1.7 8.7 0.00 0.00 0.00 26 1015.8
20260502000218 65 323 3.5 8.7 0.00 0.00 0.00 25 1015.9
20260501235659 65 0 1.7 9.6 0.00 0.00 0.00 25 1015.9
20260501235143 65 327 0.9 9.6 0.00 0.00 0.00 26 1015.8
20260501234635 65 327 0.9 9.6 0.00 0.00 0.00 24 1015.8
20260501234119 66 296 0.9 9.6 0.00 0.00 0.00 24 1015.9
20260501233621 66 277 0.9 7.0 0.00 0.00 0.00 25 1015.8
20260501233113 67 258 0.9 7.0 0.00 0.00 0.00 24 1015.9
20260501232557 66 292 1.7 7.0 0.00 0.00 0.00 25 1015.9
20260501232058 66 317 1.7 7.8 0.00 0.00 0.00 24 1015.9
20260501231542 67 282 1.7 7.8 0.00 0.00 0.00 23 1015.9
20260501231028 66 329 1.7 7.8 0.00 0.00 0.00 24 1015.9
20260501230532 67 324 1.7 7.8 0.00 0.00 0.00 23 1015.9
20260501230035 66 313 1.7 7.8 0.00 0.00 0.00 24 1015.9
20260501225521 66 264 1.7 10.4 0.00 0.00 0.00 24 1016.1
20260501225024 66 346 0.9 10.4 0.00 0.00 0.00 24 1016.1
20260501223858 65 303 2.6 10.4 0.00 0.00 0.00 25 1016.2
20260501223359 66 339 1.7 9.6 0.00 0.00 0.00 24 1016.3
20260501222859 65 337 2.6 9.6 0.00 0.00 0.00 25 1016.3
20260501222341 65 335 1.7 8.7 0.00 0.00 0.00 26 1016.4
20260501221846 65 287 1.7 8.7 0.00 0.00 0.00 25 1016.3
20260501221336 65 281 2.6 9.6 0.00 0.00 0.00 24 1016.4
20260501220842 65 310 2.6 9.6 0.00 0.00 0.00 24 1016.5
20260501220329 65 318 3.5 9.6 0.00 0.00 0.00 26 1016.5
20260501215146 66 314 1.7 8.7 0.00 0.00 0.00 25 1016.6
20260501214630 66 344 1.7 8.7 0.00 0.00 0.00 25 1016.6
20260501214121 65 328 3.5 12.2 0.00 0.00 0.00 24 1016.8
20260501213023 65 327 1.7 12.2 0.00 0.00 0.00 24 1016.9
20260501211836 66 336 2.6 10.4 0.00 0.00 0.00 24 1016.9
20260501211334 65 310 2.6 8.7 0.00 0.00 0.00 24 1016.9
20260501210815 65 339 0.9 8.7 0.00 0.00 0.00 24 1017.0
20260501210311 65 317 0.9 9.6 0.00 0.00 0.00 24 1017.0
20260501205820 65 297 1.7 9.6 0.00 0.00 0.00 25 1017.0
20260501204649 64 320 2.6 9.6 0.00 0.00 0.00 26 1017.2
20260501204134 64 345 3.5 7.8 0.00 0.00 0.00 26 1017.2
20260501203628 64 327 3.5 8.7 0.00 0.00 0.00 27 1017.1
20260501203138 64 342 2.6 8.7 0.00 0.00 0.00 26 1017.1
20260501202626 64 7 1.7 11.3 0.00 0.00 0.00 25 1017.2
20260501202124 64 330 1.7 11.3 0.00 0.00 0.00 26 1017.0
20260501200954 64 273 1.7 7.8 0.00 0.00 0.00 26 1017.1
20260501200501 65 344 1.7 7.0 0.00 0.00 0.00 24 1017.1
20260501200008 65 315 1.7 7.0 0.00 0.00 0.00 25 1017.2
20260501195502 64 304 1.7 10.4 0.00 0.00 0.00 25 1017.4
20260501194341 63 255 4.3 10.4 0.00 0.00 0.00 26 1017.5
20260501193835 63 303 3.5 9.6 0.00 0.00 0.00 26 1017.4
20260501193325 64 293 1.7 7.0 0.00 0.00 0.00 28 1017.4
20260501192822 65 342 1.7 7.0 0.00 0.00 0.00 25 1017.5
20260501192317 64 311 0.9 6.1 0.00 0.00 0.00 25 1017.6
20260501191818 63 275 0.9 6.1 0.00 0.00 0.00 28 1017.6
20260501191326 63 341 1.7 6.1 0.00 0.00 0.00 25 1017.8
20260501190811 63 341 1.7 9.6 0.00 0.00 0.00 27 1017.8
20260501190310 63 345 1.7 9.6 0.00 0.00 0.00 27 1017.9
20260501185816 63 320 1.7 10.4 0.00 0.00 0.00 27 1018.0
20260501184700 64 295 1.7 10.4 0.00 0.00 0.00 25 1018.0
20260501184151 63 268 1.7 10.4 0.00 0.00 0.00 24 1018.1
20260501183022 62 339 1.7 7.0 0.00 0.00 0.00 26 1018.3
20260501181236 62 327 1.7 7.8 0.00 0.00 0.00 27 1018.4
20260501180726 62 352 0.9 7.8 0.00 0.00 0.00 26 1018.4
20260501180229 62 307 0.0 5.2 0.00 0.00 0.00 26 1018.4
20260501175735 62 222 1.7 5.2 0.00 0.00 0.00 26 1018.4
20260501175225 61 9 1.7 7.8 0.00 0.00 0.00 26 1018.6
20260501174711 61 315 1.7 7.8 0.00 0.00 0.00 26 1018.5
20260501173534 61 325 1.7 7.8 0.00 0.00 0.00 26 1018.6
20260501173017 61 269 1.7 8.7 0.00 0.00 0.00 26 1018.6
20260501172500 61 341 2.6 8.7 0.00 0.00 0.00 27 1018.7
20260501171946 61 332 3.5 8.7 0.00 0.00 0.00 30 1018.6
20260501170143 61 330 1.7 7.0 0.00 0.00 0.00 27 1018.7